Regional Weather Roundup
Issued by NWS State College, PA

Home | Current Version | Previous Version | Graphics & Text | Print | Product List | Glossary On
Versions: 1 2 3 4 5 6 7 8 9 10 11 12 13 14 15 16 17 18 19 20 21 22 23 24 25 26 27 28 29 30 31 32 33 34 35 36 37 38 39 40 41 42 43 44 45 46 47 48 49 50
000
ASUS41 KCTP 051610
RWRCTP

REGIONAL WEATHER ROUNDUP
NATIONAL WEATHER SERVICE STATE COLLEGE PA
1100 AM EST THU MAR 05 2015

Note: "fair" indicates few or no clouds below 12,000 feet with no
significant weather and/or obstructions to visibility.

* = STATION THAT DOES NOT REPORT PRECIPITATION /E.G. RAIN...SNOW...ETC/
    THUNDER OR FOG.

PAZ002>004-007>009-013>016-020>023-029>032-051700-
WESTERN PENNSYLVANIA

CITY           SKY/WX    TMP DP  RH WIND       PRES   REMARKS
ERIE           CLOUDY    10  -2  58 N9        30.36R WCI  -3
MEADVILLE      CLOUDY    10  -3  55 NW9       30.27R WCI  -3
FRANKLIN*      CLOUDY    10  -4  52 N8        30.24F WCI  -1
NEW CASTLE     FAIR      13   1  58 NW12      30.28F WCI  -1
BEAVER COUNTY  MOSUNNY   16   3  57 N7        30.26R WCI   6
BUTLER*        CLOUDY    14   0  52 N9        30.25S WCI   2
PITTSBURGH INT CLOUDY    16   5  62 N10       30.24R WCI   4
PITTSBURGH     CLOUDY    16   8  71 N8        30.23R WCI   5
INDIANA*       CLOUDY    16   7  67 NW6       30.25R WCI   7
LATROBE        LGT SNOW  16  14  93 N9        30.26R WCI   4
WASHINGTON CO* CLOUDY    16   7  67 NW7       30.26S WCI   6
$$

PAZ004>006-010>012-017>019-024>028-033>037-041-042-045-046-049>053-051700-
CENTRAL PENNSYLVANIA

CITY           SKY/WX    TMP DP  RH WIND       PRES   REMARKS
BRADFORD       CLOUDY     8  -6  52 N8        30.13R WCI  -4
DUBOIS         CLOUDY    12  -2  53 N9G21     30.16R WCI   0
CLEARFIELD     CLOUDY    15  -3  44 NW7       30.18R WCI   5
JOHNSTOWN      FLURRIES  13   8  81 NW13      30.09R WCI  -2
ALTOONA        CLOUDY    19  10  68 NW14      30.15R WCI   6
STATE COLLEGE  NOT AVBL
WILLIAMSPORT   CLOUDY    20   2  45 NW12      30.21R WCI   8
SELINSGROVE    CLOUDY    22   8  55 N15       30.19R WCI   9
FT INDIANTOWN  FLURRIES  22  15  73 VRB7G17   30.18R WCI  14
CAPITAL CITY   SNOW      22  19  89 N8        30.20R VSB 1/2 WCI  12
HARRISBURG     LGT SNOW  23  18  81 N13       30.19R VSB 3/4 WCI  11
YORK           HVY SNOW  27  24  89 NW10      30.15R VSB 1/4
$$

PAZ038>040-043-044-047-048-054-055-060>062-067>071-051700-
EASTERN PENNSYLVANIA

CITY           SKY/WX    TMP DP  RH WIND       PRES   REMARKS
SCRANTON       CLOUDY    18   1  47 NW16      30.13F WCI   3
MOUNT POCONO   CLOUDY    15   2  56 NW12      30.00F WCI   2
ALLENTOWN      SNOW      21  16  81 N12       30.15F VSB 1/2 WCI   9
QUAKERTOWN*    CLOUDY    23  21  93 N7        30.13S VSB 1/2 WCI  15
READING        SNOW      21  18  88 N8        30.18R VSB 1/4 WCI  11
LANCASTER      SNOW      24  22  91 N10       30.17R VSB 1/2 WCI  14
COATESVILLE    HVY SNOW  27  27 100 N7        30.14R VSB 1/4
POTTSTOWN      FOG       23  22  96 N14       30.15R VSB 1/2 WCI  11
BLUE BELL      CLOUDY    30  27  86 CALM      30.11S VSB 1/2
DOYLESTOWN     SNOW      24  23  96 N12G23    30.11F VSB 1/2 WCI  13
WILLOW GROVE   NOT AVBL
NORTH PHILA    SNOW      29  27  92 N16G25    30.14S VSB 1/4
PHILADELPHIA   HVY SNOW  29  27  92 N15       30.16R VSB 1/4
$$


USA.gov is the U.S. government's official web portal to all federal, state and local government web resources and services.